DECAYED
Showing default

KILICSAT, 56181 (Decayed)

Orbit data source: Space-Track

KILICSAT, 56181 was a Turkish payload satellite in LEO that was launched on Sat, 15 Apr 2023 UTC via an FALCON 9 launch vehicle from the Air Force Western Test Range (AFWTR). Payload-class satellites include a variety of spacecraft equipped with specific instruments for various scientific and technological missions. These include communications satellites like Starlink; space stations such as the ISS; scientific satellites like the Hubble; Earth observation satellites from companies like Planet Labs, Umbra, and HawkEye 360; GPS; miniature CubeSats for education and research; and military/defense satellites.

Not visible in the next 10 days
Identifier
56181, 2023-054D
Orbit
Decayed
Country
Flag of UnknownUnknown / TURK
Related business
Manufacturer
GUMUSH
Mission
Decayed Commercial Communications
Bus & Motor
CUBESAT 3U, Unknown motor
Mass
4 kg wet, 4 kg dry
Launch date (UTC)
2023-04-15 (3 years ago)
Launch vehicle
FALCON 9
Launch site
Air Force Western Test Range (AFWTR)
Object type
Payload
Rocket body
Debris
Shape & HBR
Box, 1.0 m
Radar Cross Section
0.035 m², Small (<0.1 m²)

Expand to show TLE details & history
Last TLE update: 9 months ago

TLE from 9 months ago
0 KILICSAT
1 56181U 23054D   25030.22200029  .12678910  26668-5  31275-3 0  9990
2 56181  97.3110 300.8595 0005727 223.4023 136.6830 16.45875275101482
Epoch: 2025-01-30T05:19Z
TLE epoch observation values (Epoch: 2025-01-30T05:19:40.825Z)
Latitude
0.00006°
Longitude
91.23723°
Altitude
156.204 km
Speed
7.811 km/s
True Right ascension
20h 03m 26s
True Declination
0° 00' 00"
Sunlit
Object was in daylight at epoch
Visualization orbit readout
Latitude
Unknown
Longitude
Unknown
Altitude
Unknown
Speed
Unknown
Apparent Right ascension
Unknown
Apparent Declination
Unknown
Sunlit
N/A
Visualization observer readout
Local Sidereal Time
04:48:43
Azimuth
Unknown
Elevation
Unknown
Doppler factor
Unknown
Orbital elements
Apogee altitude
150.753 km
Perigee altitude
143.279 km
Semi-major axis
6,525.153 km
Eccentricity
0.00057
Inclination
97.311°
RAAN
300.8595°
Arg. of periapsis
223.4023°
True anomaly
136.728°
Mean anomaly
136.683°
Eccentric anomaly
136.7055°
Mean motion
4.11772 °/min
Orbital period
87.43 mins
BSTAR
0.00031275
Loading maneuver chart data...
Computing Atmospheric mass density...
Loading historical data...
Loading historical data...
Loading historical data...
Loading historical data...
Loading historical data...
Loading historical data...
Loading historical data...

Documentation

Showing up to 5 results
|